{"data":{"norad_id":59034,"intl_designator":"2024-038M","name":"STARLINK-31231","alt_names":[],"object_type":"PAYLOAD","status":"ACTIVE","operator":null,"country":"US","launch_date":"2024-02-25","launch_site_code":"AFETR","launch_vehicle":null,"mission":null,"orbit_class":"UNKNOWN","rcs_meters":null,"size_class":null,"mass_kg":null,"dimensions":null,"purposes":["comms"],"wikipedia_slug":null,"has_3d_model":false,"image_url":null,"decayed_at":null,"tle_current":{"epoch":"2026-09-20T13:53:28.738176Z","epoch_age_seconds":148956,"freshness":"FRESH","line1":"1 59034U 24038M   26263.57880484 -.00000956  00000+0 -25209-4 0  9994","line2":"2 59034  43.0029   2.9676 0001166 269.6089  90.4629 15.27579126144492","mean_motion":15.27579126,"eccentricity":0.0001166,"inclination_deg":43.0029,"raan_deg":2.9676,"arg_perigee_deg":269.6089,"mean_anomaly_deg":90.4629,"bstar":-2.5209e-5,"rev_number":14449,"period_min":94.266802648101,"perigee_km":482.25169850737,"apogee_km":483.85172771527,"semimajor_km":6861.1887131113,"source":"CELESTRAK","updated_at":"2026-09-21T09:00:34.030164Z"}}}